This demonstration page uses our WeatherBlox Daily Observations layout. Learn more.

Hourly Observations for January 14, 2016

Temp ( °F °C ) Dew Point ( °F °C ) Humidity (%) Winds ( mph kmh ) Pressure ( in mb ) Visibility ( mi km ) Precip ( " mm )
12:15 am 00:15 Clear 41 4.9 21 -6.2 45 45 SW 9 15 29.74 1007 10 16.0934 0 0
12:35 am 00:35 Clear 38 3.1 22 -5.7 53 53 SW 8 13 29.77 1008 10 16.0934 0 0
12:55 am 00:55 Clear 37 3 22 -5.8 53 53 SW 8 13 29.77 1008 10 16.0934 0 0
1:15 am 01:15 Clear 38 3.5 21 -6 50 50 SW 9 15 29.71 1006 10 16.0934 0 0
1:35 am 01:35 Clear 39 4 21 -6.2 48 48 WSW 12 19 29.71 1006 10 16.0934 0 0
1:55 am 01:55 Clear 39 4 20 -6.5 47 47 SW 12 19 29.68 1005 10 16.0934 0 0
2:15 am 02:15 Clear 39 4.1 20 -6.8 45 45 SW 12 19 29.68 1005 10 16.0934 0 0
2:35 am 02:35 Clear 39 3.8 20 -6.9 46 46 WSW 9 15 29.68 1005 10 16.0934 0 0
2:55 am 02:55 Clear 37 3 20 -6.5 50 50 SW 12 19 29.68 1005 10 16.0934 0 0
3:15 am 03:15 Clear 38 3.4 20 -6.7 48 48 WSW 8 13 29.68 1005 10 16.0934 0 0
3:35 am 03:35 Clear 37 3 20 -6.7 49 49 WSW 9 15 29.65 1004 10 16.0934 0 0
3:55 am 03:55 Clear 37 2.6 20 -6.7 51 51 WSW 7 11 29.65 1004 10 16.0934 0 0
4:15 am 04:15 Clear 35 1.5 20 -6.8 54 54 WSW 3 6 29.68 1005 10 16.0934 0 0
4:35 am 04:35 Clear 32 0.1 20 -6.8 60 60 Calm 29.68 1005 10 16.0934 0 0
4:55 am 04:55 Clear 31 -0.3 20 -6.6 63 63 SSW 3 6 29.68 1005 10 16.0934 0 0
5:15 am 05:15 Clear 31 -0.6 20 -6.5 65 65 SW 5 7 29.71 1006 10 16.0934 0 0
5:35 am 05:35 Clear 31 -0.6 20 -6.5 65 65 SW 3 6 29.65 1004 10 16.0934 0 0
5:55 am 05:55 Clear 31 -0.5 20 -6.6 64 64 WSW 3 6 29.68 1005 10 16.0934 0 0
6:15 am 06:15 Clear 30 -1.2 20 -6.6 67 67 SW 7 11 29.71 1006 10 16.0934 0 0
6:35 am 06:35 Clear 29 -1.9 20 -6.7 70 70 WSW 3 6 29.71 1006 10 16.0934 0 0
6:55 am 06:55 Clear 29 -1.5 20 -6.7 68 68 Calm 29.71 1006 10 16.0934 0 0
7:15 am 07:15 Clear 29 -1.7 20 -6.6 70 70 SW 5 7 29.71 1006 10 16.0934 0 0
7:35 am 07:35 Clear 29 -1.5 20 -6.7 68 68 SW 6 9 29.71 1006 10 16.0934 0 0
7:55 am 07:55 Clear 28 -2.1 20 -6.8 71 71 WSW 3 6 29.71 1006 10 16.0934 0 0
8:15 am 08:15 Sunny 30 -1.1 19 -7 65 65 W 8 13 29.71 1006 10 16.0934 0 0
8:35 am 08:35 Sunny 32 -0.2 19 -7 61 61 W 9 15 29.68 1005 10 16.0934 0 0
8:55 am 08:55 Sunny 32 0.1 20 -6.7 61 61 W 8 13 29.65 1004 10 16.0934 0 0
9:15 am 09:15 Sunny 34 1.1 20 -6.5 57 57 W 9 15 29.65 1004 10 16.0934 0 0
9:35 am 09:35 Sunny 37 2.8 22 -5.6 54 54 WNW 7 11 29.62 1003 10 16.0934 0 0
9:55 am 09:55 Sunny 40 4.6 23 -5 50 50 WNW 7 11 29.62 1003 10 16.0934 0 0
10:15 am 10:15 Sunny 44 6.5 23 -5 44 44 WNW 9 15 29.59 1002 10 16.0934 0 0
10:35 am 10:35 Sunny 46 8 22 -5.4 39 39 WNW 10 17 29.59 1002 10 16.0934 0 0
10:55 am 10:55 Sunny 47 8.3 23 -5.1 39 39 NW 9 15 29.59 1002 10 16.0934 0 0
11:15 am 11:15 Sunny 48 8.7 24 -4.5 39 39 NW 13 20 29.56 1001 10 16.0934 0 0
11:35 am 11:35 Sunny 48 8.7 23 -4.9 38 38 NW 10 17 29.56 1001 10 16.0934 0 0
11:55 am 11:55 Sunny 50 9.9 26 -3.5 39 39 WNW 9 15 29.53 1000 10 16.0934 0 0
12:15 pm 12:15 Sunny 51 10.4 24 -4.6 35 35 WNW 9 15 29.53 1000 10 16.0934 0 0
12:35 pm 12:35 Sunny 52 11.2 24 -4.4 33 33 NW 13 20 29.53 1000 10 16.0934 0 0
12:55 pm 12:55 Sunny 55 12.5 24 -4.7 30 30 WNW 16 26 29.47 998 10 16.0934 0 0
1:15 pm 13:15 Sunny 55 12.8 22 -5.4 28 28 WNW 13 20 29.47 998 10 16.0934 0 0
1:35 pm 13:35 Sunny 55 13 24 -4.5 30 30 NW 13 20 29.47 998 10 16.0934 0 0
1:55 pm 13:55 Sunny 55 12.9 23 -5.1 28 28 NW 18 30 29.47 998 10 16.0934 0 0
2:15 pm 14:15 Sunny 55 12.9 22 -5.3 28 28 NW 17 28 29.44 997 10 16.0934 0 0
2:35 pm 14:35 Sunny 55 12.5 23 -4.8 30 30 NW 20 31 29.44 997 10 16.0934 0 0
2:55 pm 14:55 Sunny 54 12.3 22 -5.8 28 28 NW 20 31 29.44 997 10 16.0934 0 0
3:15 pm 15:15 Sunny 54 12 22 -5.5 29 29 NW 21 33 29.47 998 10 16.0934 0 0
3:35 pm 15:35 Sunny 53 11.7 22 -5.5 30 30 NW 22 35 29.47 998 10 16.0934 0 0
3:55 pm 15:55 Sunny 53 11.5 23 -4.9 32 32 WNW 15 24 29.47 998 10 16.0934 0 0
4:15 pm 16:15 Sunny 52 10.9 23 -5 33 33 WNW 13 20 29.5 999 10 16.0934 0 0
4:35 pm 16:35 Sunny 50 10 23 -5 35 35 NW 16 26 29.53 1000 10 16.0934 0 0
4:55 pm 16:55 Sunny 45 7.4 24 -4.2 44 44 NW 10 17 29.56 1001 10 16.0934 0 0
5:15 pm 17:15 Sunny 44 6.5 26 -3.6 49 49 WNW 12 19 29.56 1001 10 16.0934 0 0
5:35 pm 17:35 Clear 42 5.5 25 -3.7 52 52 WNW 13 20 29.59 1002 10 16.0934 0 0
5:55 pm 17:55 Clear 40 4.7 26 -3.6 55 55 WNW 13 20 29.62 1003 10 16.0934 0 0
6:15 pm 18:15 Clear 38 3.6 25 -3.7 59 59 WNW 8 13 29.62 1003 10 16.0934 0 0
6:35 pm 18:35 Clear 37 3 25 -3.7 62 62 WNW 10 17 29.62 1003 10 16.0934 0 0
6:55 pm 18:55 Clear 38 3.1 26 -3.6 62 62 W 10 17 29.62 1003 10 16.0934 0 0
7:15 pm 19:15 Clear 36 2.4 25 -3.8 64 64 W 9 15 29.68 1005 10 16.0934 0 0
7:35 pm 19:35 Clear 37 2.6 26 -3.5 64 64 W 9 15 29.65 1004 10 16.0934 0 0
7:55 pm 19:55 Clear 35 1.7 26 -3.2 70 70 WNW 7 11 29.62 1003 10 16.0934 0 0
8:15 pm 20:15 Clear 35 1.5 27 -2.7 74 74 WNW 8 13 29.62 1003 10 16.0934 0 0
8:35 pm 20:35 Clear 35 1.8 27 -2.6 73 73 WNW 8 13 29.62 1003 10 16.0934 0 0
8:55 pm 20:55 Clear 37 2.6 28 -2.3 70 70 WNW 12 19 29.62 1003 10 16.0934 0 0
9:15 pm 21:15 Clear 36 2.2 28 -2.2 73 73 WNW 13 20 29.68 1005 10 16.0934 0 0
9:35 pm 21:35 Partly Cloudy 37 2.6 29 -1.7 74 74 WNW 13 20 29.65 1004 10 16.0934 0 0
9:55 pm 21:55 Mostly Cloudy 37 2.5 30 -1.2 77 77 NW 10 17 29.65 1004 10 16.0934 0 0
10:15 pm 22:15 Partly Cloudy 36 2.1 29 -1.5 77 77 NW 10 17 29.68 1005 10 16.0934 0 0
10:35 pm 22:35 Partly Cloudy 36 2.4 30 -1 79 79 NW 12 19 29.68 1005 10 16.0934 0 0
10:55 pm 22:55 Clear 36 2 30 -1.3 79 79 NW 10 17 29.71 1006 10 16.0934 0 0
11:15 pm 23:15 Partly Cloudy 35 1.7 30 -1.3 81 81 NW 12 19 29.71 1006 10 16.0934 0 0
11:35 pm 23:35 Partly Cloudy 35 1.7 30 -1.3 81 81 NNW 13 20 29.71 1006 10 16.0934 0 0
11:50 pm 23:50 Mostly Cloudy 36 2.3 29 -1.4 77 77 NNW 14 22 29.71 1006 10 16.0934 0 0

Powered by AerisWeather